Aeroporto :
LOGIN :

Iscrizione | Disclaimer

   EN    FR    IT 

 










Sommario :    VFR   VFR Marginale   IFR   IFR Intensivo   IFR Molto Intensivo
Visibilità : 
Base nubi : 
>= 8 km
>= 3000ft
5 / 8 km
1000 / 3000 ft
1500m / 5 km
500 / 1000 ft
800 / 1500m
200 / 500 ft
< 800m
< 200 ft
Simboli :   Temporali  Nebbia  Neve Forte  Precipitazioni Forti  Vento > 20 kt
SIGMETs :   Varie  Temporali  Ghiacco  Turbolenza  Onda orograficha  Ceneri Vulcaniche







- Altitudine del aeroporto : 1187 ft


LIBV - Gioia del Colle Bari

ULTIMO METAR :
  • 191055Z 01007KT 9999 FEW040 31/08 Q1016 RMK SCT SCT060 VIS MIN 9999 WIND THR32 01007KT WIND THR14 36006KT BLU

METARs OBSOLETI :
  • 190955Z 35006KT 9999 SCT040 29/09 Q1016 RMK SCT VIS MIN 9999 WIND THR32 35007KT WIND THR14 34006KT BLU
  • 190855Z 03007KT 9999 FEW030 26/09 Q1016 RMK FEW VIS MIN 9999 WIND THR32 03006KT WIND THR14 01007KT BLU

TAF TAF LIBV
Valido dal 19 a 12 ore il 19 a 21 ore UTC


191100Z 1912/1921 02010KT CAVOK
Nessun NOTAM noto per questo aeroporto.



MetMap, La meteo Aeronautica in un colpo d'occhio ! - Copyright ORBIFLY Dicembre 2007 - Disclaimer

ORBIFLY MET'MAP TEAM :

Programmazione e sviluppo : Alexandra Zaïnal
Concezione e sviluppo : Baudouin d'Aumeries
Co-Programmazione e sviluppo : Marc-Olivier Méhu
Supporto tecnico e logistico : Manuel Goepfert
Aiuto per la traduzione : Arnaldo La Scala

Contatto : metmap@orbifly.com




FONTI E CREDITI :

   NOAA